Location: Unspecified
(0.0000°N, 0.0000°E)
Time: 06:51:36
(UTC+00:00)

Altair - Visible Passes

Search period start: 01 March 2015 00:00
Search period end: 11 March 2015 00:00
Orbit: 1501 x 1683 km, 47.2° (Epoch: 26 February)

Date Brightness Start Highest point End Pass type
(mag) Time Alt. Az. Time Alt. Az. Time Alt. Az.
01 Mar 9.3 02:35:14 19° SSE 02:35:14 19° SSE 02:37:24 10° SSE visible
01 Mar 9.2 04:33:17 11° SW 04:33:25 11° SW 04:34:56 10° SSW visible
02 Mar 9.7 02:11:45 12° SSE 02:11:45 12° SSE 02:12:21 10° SSE visible
02 Mar 9.3 04:09:48 12° SSW 04:09:48 12° SSW 04:11:34 10° SSW visible
03 Mar 9.3 03:46:15 12° SSW 03:46:15 12° SSW 03:47:28 10° SSW visible
04 Mar 9.5 03:22:40 11° S 03:22:40 11° S 03:23:06 10° S visible
